Location: Banios
(43.0451°N, 0.2335°E)
Time: 12:09:13
(UTC+00:00)

A-11 Canister half - Pass Details

Date: 11 May 2021
Orbit: 1513 x 1686 km, 47.2° (Epoch: 14 June)

Event Time Altitude Azimuth Distance (km) Brightness Sun altitude
Rises 14:06:39 0° 213° (SSW) 4,681 12.1 52.7°
Reaches altitude 10° 14:09:52 10° 207° (SSW) 3,686 11.7 52.2°
Maximum altitude 14:18:28 45° 139° (SE) 1,967 10.1 50.8°
Drops below altitude 10° 14:27:03 10° 70° (ENE) 3,683 10.7 49.4°
Sets 14:30:15 0° 65° (ENE) 4,677 11.1 48.9°
